Mozhaets-4

operational
NORAD ID: 27939 Int'l Des: 2003-042 Owner: MOZHA Country: RU
LEOCIRCULARRETROGRADESSO

About Mozhaets-4

Description loading...

Live Position

Loading 3D Globe...

Upcoming Passes

Altitude History

Altitude vs Time

uPlot chart will show altitude changes over time

Two-Line Element Set

1 27939U 03042A 25345.02215183 .00002715 00000-0 43090-3 0 9994
2 27939 98.3367 159.1767 0011987 140.5894 335.3455 14.72964568187849
Epoch: Dec 11, 2025 • Age: 6 hours

Current Status

Altitude 658.2 km
Velocity 7.53 km/s
Sub-Earth Point 23.24°N, 23.91°W
Launch Date Sep 27, 2003
Age 22.2 years
Type other

Technical Details

Classification Payload
Mass 64.00 kg
Dry Mass 64.00 kg
Total Mass 64.00 kg
Length 1.00 m
Diameter 1.00 m
Span 1.00 m
Shape Poly
Manufacturer NPOPMR
Bus Type Strela-1M
Phase Status In Orbit
Owner/State MOZHA/RU

Large Constellations

Loading constellations...